Time,TemperatureF,DewpointF,PressureIn,WindDirection,WindDirectionDegrees,WindSpeedMPH,WindSpeedGustMPH,Humidity,HourlyPrecipIn,Conditions,Clouds,dailyrainin,SoftwareType,DateUTC
2013-08-26 00:10:00,56.3,56.0,29.93,ENE,75,0.0,0.0,97,0.00,,,0.00,weatherlink.com 1.10,2013-08-26 07:10:00,
2013-08-26 00:25:00,56.1,55.0,29.92,ENE,75,0.0,1.0,97,0.00,,,0.00,weatherlink.com 1.10,2013-08-26 07:25:00,
2013-08-26 00:40:00,55.8,55.0,29.92,ENE,75,0.0,1.0,97,0.00,,,0.00,weatherlink.com 1.10,2013-08-26 07:40:00,
2013-08-26 00:55:00,55.9,55.0,29.93,ENE,75,0.0,0.0,97,0.00,,,0.00,weatherlink.com 1.10,2013-08-26 07:55:00,
2013-08-26 01:11:00,55.9,55.0,29.93,ENE,75,0.0,1.0,97,0.00,,,0.00,weatherlink.com 1.10,2013-08-26 08:11:00,
2013-08-26 01:25:00,55.9,55.0,29.93,ENE,75,0.0,1.0,97,0.00,,,0.00,weatherlink.com 1.10,2013-08-26 08:25:00,
2013-08-26 01:40:00,55.7,55.0,29.93,ENE,75,0.0,1.0,97,0.00,,,0.00,weatherlink.com 1.10,2013-08-26 08:40:00,
2013-08-26 01:55:00,55.5,55.0,29.93,ENE,75,0.0,1.0,97,0.00,,,0.00,weatherlink.com 1.10,2013-08-26 08:55:00,
2013-08-26 02:10:00,55.5,55.0,29.92,ENE,75,0.0,0.0,97,0.00,,,0.00,weatherlink.com 1.10,2013-08-26 09:10:00,
2013-08-26 02:25:00,55.5,55.0,29.93,ENE,75,0.0,0.0,97,0.00,,,0.00,weatherlink.com 1.10,2013-08-26 09:25:00,
2013-08-26 02:40:00,55.4,55.0,29.93,ENE,75,0.0,0.0,97,0.00,,,0.00,weatherlink.com 1.10,2013-08-26 09:40:00,
2013-08-26 02:55:00,55.1,54.0,29.94,ENE,75,0.0,0.0,97,0.00,,,0.00,weatherlink.com 1.10,2013-08-26 09:55:00,
2013-08-26 03:10:00,54.9,54.0,29.94,ENE,75,0.0,1.0,97,0.00,,,0.00,weatherlink.com 1.10,2013-08-26 10:10:00,
2013-08-26 03:25:00,55.2,55.0,29.94,ENE,75,0.0,1.0,98,0.00,,,0.00,weatherlink.com 1.10,2013-08-26 10:25:00,
2013-08-26 03:40:00,55.5,55.0,29.94,ENE,75,0.0,0.0,98,0.00,,,0.00,weatherlink.com 1.10,2013-08-26 10:40:00,
2013-08-26 03:56:00,55.4,55.0,29.94,ENE,75,0.0,0.0,98,0.00,,,0.00,weatherlink.com 1.10,2013-08-26 10:56:00,
2013-08-26 04:10:00,55.2,55.0,29.95,ENE,75,0.0,1.0,98,0.00,,,0.00,weatherlink.com 1.10,2013-08-26 11:10:00,
2013-08-26 04:27:00,54.8,54.0,29.95,ENE,75,0.0,1.0,98,0.00,,,0.00,weatherlink.com 1.10,2013-08-26 11:27:00,
2013-08-26 04:41:00,54.6,54.0,29.95,ENE,75,1.0,1.0,98,0.00,,,0.00,weatherlink.com 1.10,2013-08-26 11:41:00,
2013-08-26 04:56:00,54.7,54.0,29.95,ENE,75,0.0,1.0,98,0.00,,,0.00,weatherlink.com 1.10,2013-08-26 11:56:00,
2013-08-26 05:11:00,54.7,54.0,29.96,ENE,75,0.0,1.0,98,0.00,,,0.00,weatherlink.com 1.10,2013-08-26 12:11:00,
2013-08-26 05:26:00,54.6,54.0,29.96,ENE,75,0.0,1.0,98,0.00,,,0.00,weatherlink.com 1.10,2013-08-26 12:26:00,
2013-08-26 05:41:00,54.6,54.0,29.96,ENE,75,0.0,0.0,98,0.00,,,0.00,weatherlink.com 1.10,2013-08-26 12:41:00,
2013-08-26 05:56:00,54.6,54.0,29.96,ENE,75,0.0,1.0,98,0.00,,,0.00,weatherlink.com 1.10,2013-08-26 12:56:00,
2013-08-26 06:11:00,54.2,54.0,29.96,ENE,75,0.0,0.0,98,0.00,,,0.00,weatherlink.com 1.10,2013-08-26 13:11:00,
2013-08-26 06:26:00,54.0,54.0,29.97,ENE,75,0.0,0.0,98,0.00,,,0.00,weatherlink.com 1.10,2013-08-26 13:26:00,
2013-08-26 06:41:00,53.9,53.0,29.97,ENE,75,0.0,1.0,98,0.00,,,0.00,weatherlink.com 1.10,2013-08-26 13:41:00,
2013-08-26 06:56:00,53.7,53.0,29.97,ENE,75,0.0,1.0,98,0.00,,,0.00,weatherlink.com 1.10,2013-08-26 13:56:00,
2013-08-26 07:11:00,53.8,53.0,29.97,ENE,75,0.0,1.0,98,0.01,,,0.01,weatherlink.com 1.10,2013-08-26 14:11:00,
2013-08-26 07:26:00,54.5,54.0,29.97,ENE,75,0.0,0.0,98,0.01,,,0.01,weatherlink.com 1.10,2013-08-26 14:26:00,
2013-08-26 07:41:00,55.2,55.0,29.97,ENE,75,0.0,1.0,98,0.01,,,0.01,weatherlink.com 1.10,2013-08-26 14:41:00,
2013-08-26 07:56:00,55.9,55.0,29.97,ENE,75,0.0,0.0,98,0.01,,,0.01,weatherlink.com 1.10,2013-08-26 14:56:00,
2013-08-26 08:11:00,56.2,56.0,29.97,ENE,75,0.0,1.0,98,0.00,,,0.01,weatherlink.com 1.10,2013-08-26 15:11:00,
2013-08-26 08:27:00,56.6,56.0,29.97,ENE,75,0.0,0.0,98,0.00,,,0.01,weatherlink.com 1.10,2013-08-26 15:27:00,
2013-08-26 08:42:00,56.8,56.0,29.97,ENE,75,0.0,1.0,98,0.00,,,0.01,weatherlink.com 1.10,2013-08-26 15:42:00,
2013-08-26 08:57:00,57.0,57.0,29.97,ENE,64,0.0,0.0,98,0.00,,,0.01,weatherlink.com 1.10,2013-08-26 15:57:00,
2013-08-26 09:11:00,57.4,57.0,29.97,ENE,63,0.0,0.0,98,0.00,,,0.01,weatherlink.com 1.10,2013-08-26 16:11:00,
2013-08-26 09:26:00,57.1,57.0,29.97,ENE,64,0.0,1.0,98,0.00,,,0.01,weatherlink.com 1.10,2013-08-26 16:26:00,
2013-08-26 09:41:00,57.2,57.0,29.96,ENE,65,0.0,1.0,98,0.00,,,0.01,weatherlink.com 1.10,2013-08-26 16:41:00,
2013-08-26 09:58:00,57.2,57.0,29.97,ENE,65,0.0,1.0,98,0.00,,,0.01,weatherlink.com 1.10,2013-08-26 16:58:00,
2013-08-26 10:11:00,57.7,57.0,29.96,ENE,65,0.0,1.0,98,0.00,,,0.01,weatherlink.com 1.10,2013-08-26 17:11:00,
2013-08-26 10:26:00,58.4,58.0,29.96,ENE,65,0.0,0.0,98,0.00,,,0.01,weatherlink.com 1.10,2013-08-26 17:26:00,
2013-08-26 10:41:00,58.6,58.0,29.96,ENE,65,0.0,1.0,98,0.00,,,0.01,weatherlink.com 1.10,2013-08-26 17:41:00,
2013-08-26 10:56:00,58.7,58.0,29.96,ENE,65,0.0,1.0,97,0.00,,,0.01,weatherlink.com 1.10,2013-08-26 17:56:00,
2013-08-26 11:12:00,58.9,58.0,29.96,ENE,65,0.0,1.0,97,0.00,,,0.01,weatherlink.com 1.10,2013-08-26 18:12:00,
2013-08-26 11:26:00,59.6,59.0,29.96,ENE,65,0.0,1.0,97,0.00,,,0.01,weatherlink.com 1.10,2013-08-26 18:26:00,
2013-08-26 11:41:00,60.4,60.0,29.95,ENE,65,0.0,1.0,97,0.00,,,0.01,weatherlink.com 1.10,2013-08-26 18:41:00,
2013-08-26 11:56:00,61.6,60.0,29.95,ENE,65,0.0,1.0,95,0.00,,,0.01,weatherlink.com 1.10,2013-08-26 18:56:00,
2013-08-26 12:12:00,63.4,61.0,29.95,ENE,70,0.0,1.0,93,0.00,,,0.01,weatherlink.com 1.10,2013-08-26 19:12:00,
2013-08-26 12:27:00,64.4,62.0,29.96,SSE,159,0.0,2.0,93,0.00,,,0.01,weatherlink.com 1.10,2013-08-26 19:27:00,
2013-08-26 12:42:00,64.8,61.0,29.95,SSE,157,1.0,1.0,88,0.00,,,0.01,weatherlink.com 1.10,2013-08-26 19:42:00,
2013-08-26 12:58:00,65.6,62.0,29.95,NE,44,0.0,1.0,88,0.00,,,0.01,weatherlink.com 1.10,2013-08-26 19:58:00,
2013-08-26 13:12:00,65.4,61.0,29.95,ENE,64,0.0,1.0,84,0.00,,,0.01,weatherlink.com 1.10,2013-08-26 20:12:00,
2013-08-26 13:27:00,67.8,61.0,29.95,NNE,22,1.0,3.0,79,0.00,,,0.01,weatherlink.com 1.10,2013-08-26 20:27:00,
2013-08-26 13:42:00,67.5,60.0,29.95,East,86,0.0,1.0,78,0.00,,,0.01,weatherlink.com 1.10,2013-08-26 20:42:00,
2013-08-26 13:57:00,67.0,60.0,29.95,East,86,0.0,1.0,78,0.00,,,0.01,weatherlink.com 1.10,2013-08-26 20:57:00,
2013-08-26 14:13:00,69.8,60.0,29.94,NE,56,1.0,2.0,71,0.00,,,0.01,weatherlink.com 1.10,2013-08-26 21:13:00,
2013-08-26 14:27:00,71.9,59.0,29.94,North,360,2.0,3.0,64,0.00,,,0.01,weatherlink.com 1.10,2013-08-26 21:27:00,
2013-08-26 14:42:00,73.1,61.0,29.93,ENE,61,1.0,2.0,65,0.00,,,0.01,weatherlink.com 1.10,2013-08-26 21:42:00,
2013-08-26 14:57:00,74.0,60.0,29.93,South,169,1.0,4.0,62,0.00,,,0.01,weatherlink.com 1.10,2013-08-26 21:57:00,
2013-08-26 15:12:00,73.4,59.0,29.93,NE,54,2.0,2.0,61,0.00,,,0.01,weatherlink.com 1.10,2013-08-26 22:12:00,
2013-08-26 15:27:00,71.9,59.0,29.93,NE,55,0.0,2.0,63,0.00,,,0.01,weatherlink.com 1.10,2013-08-26 22:27:00,
2013-08-26 15:42:00,72.6,60.0,29.92,NW,319,2.0,3.0,64,0.00,,,0.01,weatherlink.com 1.10,2013-08-26 22:42:00,
2013-08-26 15:57:00,74.7,59.0,29.92,NNW,342,1.0,3.0,58,0.00,,,0.01,weatherlink.com 1.10,2013-08-26 22:57:00,
2013-08-26 16:12:00,75.5,59.0,29.92,West,278,1.0,5.0,56,0.00,,,0.01,weatherlink.com 1.10,2013-08-26 23:12:00,
2013-08-26 16:27:00,74.6,58.0,29.92,ENE,74,1.0,4.0,56,0.00,,,0.01,weatherlink.com 1.10,2013-08-26 23:27:00,
2013-08-26 16:42:00,75.0,59.0,29.92,North,349,1.0,2.0,57,0.00,,,0.01,weatherlink.com 1.10,2013-08-26 23:42:00,
2013-08-26 16:57:00,76.2,59.0,29.92,WNW,295,1.0,3.0,56,0.00,,,0.01,weatherlink.com 1.10,2013-08-26 23:57:00,
2013-08-26 17:12:00,76.3,58.0,29.92,NNE,29,1.0,4.0,53,0.00,,,0.01,weatherlink.com 1.10,2013-08-27 00:12:00,
2013-08-26 17:27:00,76.1,58.0,29.92,North,353,1.0,3.0,53,0.00,,,0.01,weatherlink.com 1.10,2013-08-27 00:27:00,
2013-08-26 17:42:00,75.2,57.0,29.92,NW,316,0.0,7.0,53,0.00,,,0.01,weatherlink.com 1.10,2013-08-27 00:42:00,
2013-08-26 17:58:00,75.0,58.0,29.92,East,79,0.0,4.0,55,0.00,,,0.01,weatherlink.com 1.10,2013-08-27 00:58:00,
2013-08-26 18:12:00,74.3,57.0,29.92,NE,45,0.0,3.0,55,0.00,,,0.01,weatherlink.com 1.10,2013-08-27 01:12:00,
2013-08-26 18:27:00,73.1,57.0,29.92,WNW,284,1.0,5.0,58,0.00,,,0.01,weatherlink.com 1.10,2013-08-27 01:27:00,
2013-08-26 18:42:00,72.1,56.0,29.93,East,96,2.0,4.0,57,0.00,,,0.01,weatherlink.com 1.10,2013-08-27 01:42:00,
2013-08-26 18:57:00,71.1,53.0,29.93,WSW,242,2.0,4.0,54,0.00,,,0.01,weatherlink.com 1.10,2013-08-27 01:57:00,
2013-08-26 19:12:00,70.5,54.0,29.93,North,5,1.0,4.0,56,0.00,,,0.01,weatherlink.com 1.10,2013-08-27 02:12:00,
2013-08-26 19:28:00,69.3,53.0,29.93,NW,321,1.0,3.0,57,0.00,,,0.01,weatherlink.com 1.10,2013-08-27 02:28:00,
2013-08-26 19:42:00,68.2,51.0,29.93,East,83,1.0,3.0,55,0.00,,,0.01,weatherlink.com 1.10,2013-08-27 02:42:00,
2013-08-26 19:57:00,67.8,51.0,29.93,ENE,61,0.0,3.0,56,0.00,,,0.01,weatherlink.com 1.10,2013-08-27 02:57:00,
2013-08-26 20:13:00,66.9,51.0,29.94,ESE,109,1.0,3.0,57,0.00,,,0.01,weatherlink.com 1.10,2013-08-27 03:13:00,
2013-08-26 20:29:00,66.3,51.0,29.95,NW,314,1.0,4.0,58,0.00,,,0.01,weatherlink.com 1.10,2013-08-27 03:29:00,
2013-08-26 20:43:00,65.9,51.0,29.95,ENE,64,1.0,3.0,59,0.00,,,0.01,weatherlink.com 1.10,2013-08-27 03:43:00,
2013-08-26 20:59:00,65.4,51.0,29.95,NE,56,1.0,2.0,60,0.00,,,0.01,weatherlink.com 1.10,2013-08-27 03:59:00,
2013-08-26 21:14:00,65.4,51.0,29.96,NNE,29,1.0,4.0,60,0.00,,,0.01,weatherlink.com 1.10,2013-08-27 04:14:00,
2013-08-26 21:28:00,65.0,52.0,29.96,North,7,1.0,4.0,62,0.00,,,0.01,weatherlink.com 1.10,2013-08-27 04:28:00,
2013-08-26 21:43:00,64.3,52.0,29.96,ESE,109,1.0,4.0,64,0.00,,,0.01,weatherlink.com 1.10,2013-08-27 04:43:00,
2013-08-26 21:58:00,64.1,52.0,29.97,NE,53,0.0,6.0,65,0.00,,,0.01,weatherlink.com 1.10,2013-08-27 04:58:00,
2013-08-26 22:13:00,63.5,52.0,29.97,NE,55,1.0,3.0,67,0.00,,,0.01,weatherlink.com 1.10,2013-08-27 05:13:00,
2013-08-26 22:28:00,63.0,52.0,29.98,NNW,342,1.0,4.0,68,0.00,,,0.01,weatherlink.com 1.10,2013-08-27 05:28:00,
2013-08-26 22:43:00,62.4,52.0,29.98,NNW,339,0.0,4.0,69,0.00,,,0.01,weatherlink.com 1.10,2013-08-27 05:43:00,
2013-08-26 22:58:00,61.8,53.0,29.98,NE,56,0.0,2.0,72,0.00,,,0.01,weatherlink.com 1.10,2013-08-27 05:58:00,
2013-08-26 23:14:00,61.1,52.0,29.98,ESE,119,0.0,3.0,73,0.00,,,0.01,weatherlink.com 1.10,2013-08-27 06:14:00,
2013-08-26 23:28:00,60.6,52.0,29.98,NNW,340,0.0,4.0,74,0.00,,,0.01,weatherlink.com 1.10,2013-08-27 06:28:00,
2013-08-26 23:43:00,59.7,52.0,29.98,North,1,1.0,3.0,76,0.00,,,0.01,weatherlink.com 1.10,2013-08-27 06:43:00,
2013-08-26 23:58:00,59.2,52.0,29.98,NE,47,1.0,2.0,78,0.00,,,0.01,weatherlink.com 1.10,2013-08-27 06:58:00,